Location: Durham
(54.7770°N, 1.5720°W)
Time: 23:04:31
(UTC+01:00)

ISS - Visible Passes

Search period start: 25 October 2014 00:00
Search period end: 03 November 2014 23:00
Orbit: 412 x 416 km, 51.6° (Epoch: 25 October)

Date Brightness Start Highest point End Pass type
(mag) Time Alt. Az. Time Alt. Az. Time Alt. Az.
25 Oct -0.4 19:12:33 10° WSW 19:14:27 14° SW 19:16:21 10° S visible
26 Oct -0.7 17:22:59 10° WSW 17:25:28 20° SSW 17:27:58 10° SSE visible
28 Oct 0.0 17:22:13 10° WSW 17:23:15 11° SW 17:24:16 10° SSW visible
